This demonstration page uses our WeatherBlox Daily Observations layout. Learn more.

Left ArrowRight Arrow

41.55636, -103.73856

Hourly Observations for August 5, 2021

Temp ( °F °C ) Dew Point ( °F °C ) Humidity (%) Winds ( mph kmh ) Pressure ( in mb ) Visibility ( mi km ) Precip ( " mm )
12:58 am 00:58 Mostly Cloudy 62 16.8 46 7.8 56 56 WSW 5 7 30.07 1018 10 16 N/A
1:58 am 01:58 Clear 62 16.7 46 7.8 56 56 SW 7 11 30.05 1018 10 16 N/A
2:58 am 02:58 Clear 64 17.7 43 6.3 47 47 W 3 6 30.03 1017 10 16 N/A
3:58 am 03:58 Clear 59 15.2 46 8 62 62 NNW 5 7 30.05 1018 10 16 N/A
4:58 am 04:58 Clear 59 15.2 46 7.5 60 60 WNW 3 6 30.05 1018 10 16 N/A
5:58 am 05:58 Sunny 56 13.1 44 6.9 66 66 SW 7 11 30.06 1018 10 16 N/A
6:58 am 06:58 Sunny 55 12.5 45 7.4 71 71 SW 8 13 30.07 1018 10 16 N/A
7:58 am 07:58 Sunny 62 16.7 49 9.2 61 61 W 3 6 30.07 1018 10 16 N/A
8:58 am 08:58 Sunny 69 20.8 51 10.8 53 53 N N/A 30.07 1018 10 16 N/A
9:58 am 09:58 Sunny 80 26.5 43 6.2 27 27 N N/A 30.03 1017 10 16 N/A
10:58 am 10:58 Sunny 85 29.2 38 3.1 19 19 SSW 6 9 30.02 1017 10 16 N/A
11:58 am 11:58 Sunny 86 29.9 34 1.1 16 16 N N/A 30.00 1016 10 16 N/A
12:58 pm 12:58 Sunny 88 30.9 33 0.4 14 14 W 6 9 29.98 1015 10 16 N/A
1:58 pm 13:58 Sunny 91 32.5 35 1.5 14 14 S 6 9 29.94 1014 10 16 N/A
2:58 pm 14:58 Sunny 91 32.7 35 1.7 14 14 SW 3 6 29.93 1014 10 16 N/A
3:58 pm 15:58 Sunny 92 33.2 32 -0.2 12 12 N N/A 29.91 1013 10 16 N/A
4:58 pm 16:58 Sunny 92 33.1 35 1.4 13 13 SE 8 13 29.87 1012 10 16 N/A
5:58 pm 17:58 Partly Cloudy 91 32.6 34 1.2 13 13 SSE 3 6 29.88 1012 10 16 N/A
6:58 pm 18:58 Mostly Cloudy 83 28.4 40 4.3 21 21 NE 23 37 29.92 1013 10 16 N/A
7:58 pm 19:58 Mostly Cloudy with Light Showers 76 24.3 45 7.2 34 34 SE 15 24 29.93 1014 10 16 0.01 0.25
8:58 pm 20:58 Clear 78 25.3 40 4.7 27 27 SSE 14 22 29.89 1012 10 16 N/A
9:58 pm 21:58 Clear 71 21.9 42 5.7 35 35 SE 14 22 29.91 1013 10 16 N/A
10:58 pm 22:58 Mostly Cloudy 73 22.5 42 5.3 33 33 S 12 19 29.89 1012 10 16 N/A
11:58 pm 23:58 Partly Cloudy 70 21.2 42 5.4 36 36 SSW 9 15 29.90 1012 10 16 N/A

Powered by AerisWeather